Content
SEND FEEDBACK

Daily
Averages
Monthly
Summary
United States of America

WARSAW, NORTH CAROLINA


Home > North America > United States > North Carolina
Elevation: 108 feet     Latitude: 35 00N     Longitude: 078 02W

WEATHER
 
SELECT A DAY
Number of Records: 70,900;   Date Range: 3/18/98 - 8/26/14
 
SHARE

PRINT THIS DATA

[ ← Previous Day ]
WEATHER ALMANAC - FEBRUARY 13, 2013
[ Next Day → ]
[ °C ]   °F
Weather ElementAverageHighLow
Temperature49.3 °F54.5 °F (5:15 pm)45.5 °F (7:15 am)
Dewpoint47.5 °F52.5 °F (4:35 pm)45 °F (6:15 am)
Humidity93.7 %99 % (7:55 am)81 % (8:15 pm)
Barometer29.78 in29.99 in (12:35 am)29.63 in (3:15 pm)
Wind Speed4.7 mph15 mph (6:35 pm)
Wind Gust23 mph (8:15 pm)
Weather ElementAverage
Visibility5.9 mi
Wind DirectionESE (117.4 °)

Weather ElementTotal
Precipitation0.50 in
Heating Degree Days15 (Base 65)
Averaged from 70 records on February 13, 2013
WEATHER CONDITIONS BREAKOUT
WIND DIRECTION BREAKOUT
WEATHER BY HOUR - FEBRUARY 13, 2013
[ °C ]   °F
Local TimeTemperatureDewpointHumidityBarometerVisibilityWind DirectionWind SpeedGust SpeedPrecipitationEventsConditions
12:35 AM48.6 °F47.7 °F97 %29.99 in4.0 miCalm0.06 inRainRain
12:55 AM48.2 °F47.5 °F97 %29.95 in3.0 miCalm0.07 inRainLight Rain
1:15 AM48.0 °F47.5 °F98 %29.93 in10.0 miCalmOvercast
1:35 AM48.2 °F47.3 °F97 %29.94 in7.0 miCalm0.01 inRainLight Rain
1:55 AM48.2 °F47.3 °F97 %29.91 in5.0 miCalm0.04 inRainLight Rain
2:15 AM48.2 °F47.3 °F97 %29.90 in10.0 miCalmOvercast
2:35 AM48.2 °F47.3 °F97 %29.90 in7.0 miCalm0.01 inRainLight Rain
2:55 AM47.5 °F46.8 °F97 %29.88 in4.0 miCalm0.05 inRainRain
3:15 AM47.3 °F45.9 °F95 %29.86 in5.0 miEast (100°)3.5 mph0.03 inRainRain
3:35 AM46.9 °F45.1 °F93 %29.88 in7.0 miCalm0.04 inRainLight Rain
3:55 AM46.4 °F45.3 °F96 %29.87 in5.0 miCalm0.05 inRainLight Rain
4:15 AM46.4 °F45.1 °F95 %29.84 in7.0 miENE (60°)3.5 mphRainLight Rain
4:35 AM46.2 °F45.1 °F96 %29.83 in7.0 miENE (60°)3.5 mphRainLight Rain
4:55 AM46.4 °F45.5 °F97 %29.83 in7.0 miCalmOvercast
5:15 AM46.4 °F45.5 °F97 %29.83 in7.0 miENE (60°)3.5 mphOvercast
5:35 AM46.0 °F45.1 °F97 %29.83 in5.0 miCalmLight Drizzle
5:55 AM46.0 °F45.5 °F98 %29.84 in3.0 miCalmOvercast
6:15 AM45.7 °F45.0 °F97 %29.84 in4.0 miESE (120°)4.6 mph0.01 inOvercast
6:35 AM45.7 °F45.0 °F97 %29.83 in4.0 miEast (80°)3.5 mph0.01 inRainLight Rain
6:55 AM45.7 °F45.0 °F97 %29.84 in7.0 miCalm0.01 inOvercast
7:15 AM45.5 °F45.0 °F98 %29.83 in2.0 miCalm0.01 inOvercast
7:35 AM45.5 °F45.0 °F98 %29.82 in3.0 miCalm0.01 inOvercast
7:55 AM45.9 °F45.5 °F99 %29.83 in2.0 miCalm0.01 inOvercast
8:15 AM45.9 °F45.5 °F99 %29.83 in1.8 miNorth (360°)6.9 mph0.01 inOvercast
8:35 AM46.0 °F45.5 °F98 %29.82 in2.5 miNorth (10°)5.8 mph0.01 inOvercast
8:55 AM46.4 °F45.7 °F97 %29.82 in2.0 miNNE (20°)5.8 mph0.01 inOvercast
9:15 AM46.4 °F45.9 °F98 %29.80 in1.8 miNNE (20°)4.6 mph0.01 inOvercast
9:55 AM46.9 °F46.4 °F98 %29.81 in2.5 miCalm0.01 inOvercast
10:15 AM46.9 °F46.4 °F98 %29.80 in2.0 miNNE (30°)3.5 mphOvercast
10:35 AM47.3 °F46.6 °F97 %29.77 in4.0 miEast (90°)3.5 mphOvercast
10:55 AM47.7 °F46.9 °F97 %29.76 in7.0 miENE (60°)4.6 mphOvercast
11:15 AM48.2 °F47.3 °F97 %29.77 in7.0 miCalmOvercast
11:35 AM48.4 °F47.3 °F96 %29.75 in10.0 miCalmOvercast
11:55 AM48.6 °F47.5 °F96 %29.74 in4.0 miCalmOvercast
12:15 PM48.6 °F47.5 °F96 %29.75 in2.0 miNNE (20°)3.5 mphOvercast
12:35 PM49.1 °F48.2 °F97 %29.72 in1.8 miCalmOvercast
12:55 PM49.1 °F48.2 °F97 %29.72 in1.5 miCalmOvercast
1:15 PM49.3 °F48.6 °F97 %29.73 in1.5 miCalmOvercast
1:35 PM49.3 °F48.6 °F97 %29.69 in1.5 miCalmOvercast
1:55 PM49.6 °F49.1 °F98 %29.66 in1.5 miSSE (150°)4.6 mphOvercast
2:15 PM50.2 °F49.5 °F97 %29.65 in2.0 miESE (120°)3.5 mphOvercast
2:35 PM50.5 °F50.0 °F98 %29.64 in2.5 miSSE (160°)5.8 mphOvercast
2:55 PM51.3 °F50.4 °F97 %29.67 in4.0 miCalmOvercast
3:15 PM51.6 °F50.7 °F97 %29.63 in2.5 miSSE (150°)5.8 mphOvercast
3:35 PM52.0 °F51.1 °F97 %29.64 in1.8 miSouth (170°)3.5 mphLight Drizzle
3:55 PM52.3 °F51.4 °F97 %29.69 in3.0 miWSW (240°)10.4 mphOvercast
4:15 PM52.7 °F51.8 °F97 %29.68 in2.5 miSW (230°)10.4 mphOvercast
4:35 PM53.6 °F52.5 °F96 %29.67 in5.0 miSW (230°)11.5 mphOvercast
4:55 PM54.1 °F52.2 °F93 %29.67 in7.0 miWSW (250°)9.2 mph16.1 mphOvercast
5:15 PM54.5 °F52.0 °F91 %29.69 in10.0 miWSW (250°)11.5 mphOvercast
5:35 PM53.8 °F51.8 °F93 %29.66 in5.0 miWSW (240°)8.1 mph0.01 inRainLight Rain
5:55 PM53.6 °F51.4 °F92 %29.69 in10.0 miWSW (250°)10.4 mph0.02 inRainLight Rain
6:15 PM53.6 °F51.1 °F91 %29.69 in10.0 miWSW (240°)11.5 mph19.6 mphRainLight Rain
6:35 PM52.9 °F50.0 °F90 %29.69 in10.0 miWSW (240°)15.0 mph18.4 mphOvercast
6:55 PM52.9 °F49.6 °F89 %29.73 in10.0 miWSW (250°)12.7 mph19.6 mphMostly Cloudy
7:15 PM52.7 °F49.3 °F88 %29.72 in10.0 miWest (260°)9.2 mph20.7 mphOvercast
7:35 PM52.5 °F49.1 °F88 %29.72 in10.0 miWest (260°)9.2 mphOvercast
7:55 PM52.3 °F48.6 °F87 %29.73 in10.0 miWSW (250°)10.4 mphOvercast
8:15 PM52.5 °F46.9 °F81 %29.74 in10.0 miWSW (250°)12.7 mph23.0 mphOvercast
8:35 PM52.2 °F46.8 °F82 %29.75 in10.0 miWest (270°)10.4 mph18.4 mphOvercast
8:55 PM51.8 °F46.6 °F82 %29.74 in10.0 miWest (260°)10.4 mph16.1 mphOvercast
9:15 PM51.4 °F46.8 °F84 %29.76 in10.0 miWest (260°)6.9 mphMostly Cloudy
9:35 PM51.4 °F46.6 °F83 %29.78 in10.0 miWest (270°)8.1 mphOvercast
9:55 PM51.3 °F46.4 °F83 %29.77 in10.0 miWest (260°)5.8 mphOvercast
10:15 PM50.9 °F45.9 °F83 %29.78 in10.0 miWest (260°)9.2 mphMostly Cloudy
10:35 PM50.9 °F45.7 °F82 %29.79 in10.0 miWest (270°)11.5 mphMostly Cloudy
10:55 PM50.4 °F45.5 °F83 %29.80 in10.0 miWest (270°)9.2 mphScattered Clouds
11:15 PM50.0 °F45.5 °F85 %29.80 in10.0 miWest (270°)8.1 mphClear
11:35 PM49.5 °F45.5 °F86 %29.80 in10.0 miWest (270°)10.4 mphScattered Clouds
11:55 PM49.3 °F45.0 °F85 %29.80 in10.0 miWest (280°)5.8 mphClear
Hourly data recorded from KDPL, located miles away from Warsaw, North Carolina







STORIES FROM OUR PARTNERS